TimePST,TemperatureF,Dew PointF,Humidity,Sea Level PressureIn,VisibilityMPH,Wind Direction,Wind SpeedMPH,Gust SpeedMPH,PrecipitationIn,Events,Conditions,WindDirDegrees,DateUTC
12:53 AM,19.0,14.0,81,30.20,5.0,West,5.8,-,N/A,,Haze,270,2013-01-24 08:53:00
1:53 AM,17.1,12.0,81,30.23,5.0,West,6.9,-,N/A,,Haze,270,2013-01-24 09:53:00
2:53 AM,18.0,14.0,84,30.24,6.0,West,6.9,-,N/A,,Partly Cloudy,280,2013-01-24 10:53:00
3:08 AM,19.4,15.8,86,30.20,6.0,West,8.1,-,N/A,,Haze,260,2013-01-24 11:08:00
3:53 AM,21.0,17.1,85,30.26,5.0,West,5.8,-,N/A,,Overcast,270,2013-01-24 11:53:00
4:07 AM,21.2,17.6,86,30.21,5.0,WNW,3.5,-,N/A,,Overcast,300,2013-01-24 12:07:00
4:53 AM,24.1,19.0,81,30.26,5.0,West,5.8,-,N/A,,Haze,260,2013-01-24 12:53:00
5:34 AM,24.8,19.4,80,30.21,4.0,WNW,6.9,-,N/A,,Overcast,300,2013-01-24 13:34:00
5:53 AM,24.1,21.0,88,30.27,4.0,NW,4.6,-,N/A,,Overcast,310,2013-01-24 13:53:00
6:22 AM,24.8,19.4,80,30.23,2.5,NW,5.8,-,N/A,,Overcast,310,2013-01-24 14:22:00
6:35 AM,24.8,19.4,80,30.25,1.0,WNW,5.8,-,N/A,,Overcast,300,2013-01-24 14:35:00
6:43 AM,24.8,19.4,80,30.24,0.8,WNW,4.6,-,0.00,Snow,Light Snow,300,2013-01-24 14:43:00
6:53 AM,24.1,19.9,84,30.29,0.8,NW,4.6,-,0.00,,Overcast,320,2013-01-24 14:53:00
7:53 AM,23.0,19.9,88,30.29,0.2,WSW,3.5,-,N/A,Fog,Light Freezing Fog,240,2013-01-24 15:53:00
8:17 AM,23.0,19.4,86,30.25,0.2,Calm,Calm,-,N/A,Fog,Light Freezing Fog,0,2013-01-24 16:17:00
8:38 AM,23.0,19.4,86,30.25,0.2,Calm,Calm,-,N/A,Fog,Light Freezing Fog,0,2013-01-24 16:38:00
8:53 AM,24.1,19.9,84,30.31,0.5,Calm,Calm,-,N/A,,Overcast,0,2013-01-24 16:53:00
9:15 AM,23.0,21.2,93,30.27,0.2,Calm,Calm,-,N/A,Fog,Light Freezing Fog,0,2013-01-24 17:15:00
9:37 AM,24.8,19.4,80,30.26,0.5,Calm,Calm,-,N/A,,Overcast,0,2013-01-24 17:37:00
9:53 AM,24.1,21.0,88,30.31,1.2,Calm,Calm,-,N/A,,Overcast,0,2013-01-24 17:53:00
10:09 AM,24.8,21.2,86,30.27,0.8,WSW,4.6,-,N/A,,Overcast,250,2013-01-24 18:09:00
10:38 AM,24.8,21.2,86,30.27,0.2,WSW,3.5,-,0.00,Fog-Snow,Light Snow,250,2013-01-24 18:38:00
10:53 AM,25.0,21.9,88,30.32,0.5,Calm,Calm,-,0.00,,Overcast,0,2013-01-24 18:53:00
11:53 AM,27.0,23.0,85,30.29,1.5,Calm,Calm,-,0.00,,Overcast,0,2013-01-24 19:53:00
12:40 PM,26.6,23.0,86,30.23,3.0,West,4.6,-,N/A,,Overcast,270,2013-01-24 20:40:00
12:53 PM,27.0,24.1,89,30.27,3.0,Calm,Calm,-,N/A,,Overcast,0,2013-01-24 20:53:00
1:30 PM,28.4,24.8,86,30.20,3.0,Calm,Calm,-,N/A,,Haze,0,2013-01-24 21:30:00
1:53 PM,28.9,24.1,82,30.24,4.0,Calm,Calm,-,N/A,,Haze,0,2013-01-24 21:53:00
2:53 PM,33.1,24.1,70,30.24,6.0,Calm,Calm,-,N/A,,Haze,0,2013-01-24 22:53:00
3:53 PM,33.1,25.0,72,30.24,6.0,Calm,Calm,-,N/A,,Haze,0,2013-01-24 23:53:00
4:53 PM,33.1,25.0,72,30.24,6.0,Calm,Calm,-,N/A,,Haze,0,2013-01-25 00:53:00
5:53 PM,33.1,26.1,75,30.22,7.0,Calm,Calm,-,N/A,,Mostly Cloudy,0,2013-01-25 01:53:00
6:33 PM,33.8,26.6,75,30.19,6.0,Calm,Calm,-,N/A,,Haze,0,2013-01-25 02:33:00
6:53 PM,33.1,27.0,78,30.24,6.0,Calm,Calm,-,N/A,,Haze,0,2013-01-25 02:53:00
7:17 PM,33.8,26.6,75,30.19,6.0,ESE,3.5,-,N/A,,Haze,110,2013-01-25 03:17:00
7:53 PM,32.0,26.1,79,30.21,6.0,Calm,Calm,-,N/A,,Haze,0,2013-01-25 03:53:00
8:53 PM,30.9,26.1,82,30.22,6.0,Calm,Calm,-,N/A,,Haze,0,2013-01-25 04:53:00
9:53 PM,30.9,25.0,79,30.22,5.0,WSW,3.5,-,N/A,,Haze,250,2013-01-25 05:53:00
10:53 PM,30.9,26.1,82,30.21,5.0,Calm,Calm,-,N/A,,Haze,0,2013-01-25 06:53:00
11:25 PM,30.2,24.8,80,30.17,5.0,Calm,Calm,-,N/A,,Haze,0,2013-01-25 07:25:00
11:53 PM,30.0,26.1,85,30.21,4.0,Calm,Calm,-,N/A,,Mostly Cloudy,0,2013-01-25 07:53:00